Hourly Data Report for October 24, 2014

All times are specified in Local Standard Time (LST). Add 1 hour to adjust for Daylight Saving Time where and when it is observed.

TORONTO INTL A
ONTARIO

43°40'36.000" N
79°37'50.000" W
173.40 m
6158731
71624
YYZ

Download Data

Hourly Data (October 2014)
Hourly Data Report for October 24, 2014
Temp Definition
°C
Dew Point Temp Definition
°C
Rel Hum Definition
%
Wind Dir Definition
10's deg

Wind Spd Definition
km/h
Visibility Definition
km
Stn Press Definition
kPa
Hmdx Definition


Wind Chill Definition


Weather Definition


TIME
00:00 Legend Double Dagger 6.7 3.7 81 34 13 24.1 99.65     LegendNANA
01:00 Legend Double Dagger 6.3 3.8 84 32 18 24.1 99.66     Clear
02:00 Legend Double Dagger 4.8 2.5 85 32 16 24.1 99.65     LegendNANA
03:00 Legend Double Dagger 5.3 2.0 79 33 14 24.1 99.64     LegendNANA
04:00 Legend Double Dagger 3.9 1.3 83 31 12 24.1 99.67     Clear
05:00 Legend Double Dagger 3.4 0.8 83 32 14 24.1 99.68     LegendNANA
06:00 Legend Double Dagger 3.3 0.5 82 32 14 19.3 99.69     LegendNANA
07:00 Legend Double Dagger 3.7 1.1 83 35 14 24.1 99.66     Mainly Clear
08:00 Legend Double Dagger 4.6 1.8 82 30 15 24.1 99.70     LegendNANA
09:00 Legend Double Dagger 7.3 3.2 75 36 13 24.1 99.68     LegendNANA
10:00 Legend Double Dagger 9.1 4.5 73 31 16 24.1 99.66     Mainly Clear
11:00 Legend Double Dagger 10.3 4.1 65 27 14 24.1 99.60     LegendNANA
12:00 Legend Double Dagger 11.5 3.3 57 27 13 24.1 99.54     LegendNANA
13:00 Legend Double Dagger 12.5 1.9 48 30 13 24.1 99.44     Mostly Cloudy
14:00 Legend Double Dagger 14.4 3.3 47 31 15 24.1 99.36     LegendNANA
15:00 Legend Double Dagger 15.5 4.3 47 27 6 24.1 99.29     LegendNANA
16:00 Legend Double Dagger 15.7 4.5 47 26 16 24.1 99.27     Mainly Clear
17:00 Legend Double Dagger 13.8 5.2 56 26 18 24.1 99.28     LegendNANA
18:00 Legend Double Dagger 11.9 5.6 65 27 13 24.1 99.29     LegendNANA
19:00 Legend Double Dagger 11.1 5.7 69 25 13 24.1 99.32     Mainly Clear
20:00 Legend Double Dagger 11.6 5.3 65 31 14 24.1 99.32     LegendNANA
21:00 Legend Double Dagger 10.9 5.7 70 31 14 24.1 99.32     LegendNANA
22:00 Legend Double Dagger 11.3 5.9 69 30 4 24.1 99.29     Mostly Cloudy
23:00 Legend Double Dagger 12.0 5.9 66 36 3 24.1 99.22     LegendNANA

Notes on Data Quality.

Legend

  • E = Estimated
  • M = Missing
  • NA = Not Available
  • ‡ = Partner data that is not subject to review by the National Climate Archives
Date modified: